[ hide orbit diagram ]
For accurate long-term ephemerides, please instead use our Horizons system.This orbit viewer was implemented using two-body methods, and hence should not be used for determining accurate long-term trajectories (over several years or decades) or planetary encounter circumstances.
Orbital Elements at Epoch 2459000.5 (2020-May-31.0) TDB
Reference: JPL 14 (heliocentric ecliptic J2000)
Element | Value | Uncertainty (1-sigma) | Units |
e | .05775443520490681 | 4.067e-08 | |
a | 1.936938173609352 | 9.7303e-09 | au |
q | 1.82507140336572 | 7.9813e-08 | au |
i | 21.08989404221357 | 5.2749e-06 | deg |
node | 192.8016973143916 | 1.2426e-05 | deg |
peri | 264.5394252346669 | 4.856e-05 | deg |
M | 34.53740887848829 | 4.5042e-05 | deg |
tp | 2458906.037525969720 (2020-Feb-26.53752597) | 0.00012329 | TDB |
period | 984.6277342502656 2.70 | 7.4195e-06 2.031e-08 | d yr |
n | .3656204141701515 | 2.7551e-09 | deg/d |
Q | 2.048804943852984 | 1.0292e-08 | au |
|
| | Orbit Determination Parameters
Additional Information
|
[ show covariance matrix ]
Physical Parameter Table
Parameter |
Symbol |
Value |
Units |
Sigma |
Reference |
Notes |
absolute magnitude |
H |
17.5 |
|
n/a |
MPO437379 |
|
|
312470 (2008 SQ134) Discovered 2008-Sep-23 by Spacewatch at Kitt Peak |
Reference: 20120109/Numbers.arc | Last Updated: 2012-01-11 |
|
[ show close-approach data ]
|